Location: Newark
(12.4436°N, 0.6167°W)
Time: 19:00:30
(UTC+00:00)

Vanguard 1 - Pass Details

Date: 10 December 2019
Orbit: 650 x 3833 km, 34.2° (Epoch: 28 January)

Event Time Altitude Azimuth Distance (km) Brightness Sun altitude
Rises 12:43:57 0° 295° (WNW) 5,205 13.7 52.7°
Reaches altitude 10° 12:48:21 10° 288° (WNW) 3,682 13.2 52.3°
Maximum altitude 12:55:59 36° 224° (SW) 1,551 12.7 51.6°
Drops below altitude 10° 13:00:53 10° 157° (SSE) 2,336 12.6 51.2°
Sets 13:03:05 0° 148° (SSE) 3,107 12.9 50.9°
